Карточка аэропорта UHBB

Внимание!
Информация на этой странице в стадии наполнения.
Если вы не увидели какой-то информации, или заметили неточность - пожалуйста сообщите нам!
Спасибо!
Команда RU-STAFF
Название аэропортаИгнатьево
Название аэропорта (англ.)Ignatyevo
Превышение640 ft. (195.1 m.)
Координаты50°25.536', 127°24.72'
Высота перехода900m
Эшелон переходаFL060 (<1013 hpa / 760 mm); FL070 (<977 hpa / 733 mm)
Коды ответчика1601-1617
Зона ОрВДХабаровск РПИ (UHHH)
Данные METARUHBB 041900Z 24003MPS CAVOK M21/M27 Q1017 R36/820250 NOSIG RMK QFE745/0994
Проноз погоды (TAF)UHBB 041640Z 0418/0518 24003G08MPS CAVOK= UHSS 041700Z 0418/0524 27003MPS 9999 -SHSN BKN025CB TEMPO 0418/0423 1400 SHSN BECMG 0423/0501 26003G08MPS NSW
NOTAMshow/hide NOTAM
AWOS   TABLE

Информация о ВПП

ВПП Длина ВПП (м.) Покрытие Курс ВПП Частота ILS
182800Асфальтобетон180 
362800Асфальтобетон360108.7

Диспетчерские позиции

Позывной Наименование органа УВД Частота
UHBB_TWRБлаговещенск-Вышка127.2



Спутниковое изображение